Overview Statistics Trail Chart Weather Telemetry Raw packets
 

This is the latest recevied weather packets stored in our database for station/object KQ7A. If no packets are shown the sender has not sent any weather packets the latest 10 day(s).

<< 2 3 4 5 6 7 8 >>
Time Temp. Humidity Pressure Rain* Wind** Luminosity Snow
1788660854 18.89° C 37% 1015.9 hPa 0 mm - 5 W/m² -
1788660549 19.44° C 34% 1015.6 hPa 0 mm - 8 W/m² -
1788660244 18.89° C 35% 1015.5 hPa 0 mm - 10 W/m² -
1788659938 19.44° C 33% 1015.8 hPa 0 mm - 12 W/m² -
1788659636 19.44° C 34% 1015.6 hPa 0 mm - 14 W/m² -
1788659330 19.44° C 34% 1015.8 hPa 0 mm - 17 W/m² -
1788659025 19.44° C 34% 1015.5 hPa 0 mm - 19 W/m² -
1788658722 19.44° C 34% 1015.9 hPa 0 mm - 22 W/m² -
1788658417 19.44° C 34% 1015.6 hPa 0 mm - 23 W/m² -
1788658112 19.44° C 34% 1015.8 hPa 0 mm - 23 W/m² -
1788657807 19.44° C 35% 1015.6 hPa 0 mm - 24 W/m² -
1788657507 19.44° C 34% 1015.9 hPa 0 mm - 25 W/m² -
1788657202 20° C 33% 1015.9 hPa 0 mm - 27 W/m² -
1788656898 20° C 32% 1015.8 hPa 0 mm - 27 W/m² -
1788656594 20° C 35% 1016 hPa 0 mm - 29 W/m² -
1788656289 20° C 34% 1015.9 hPa 0 mm - 30 W/m² -
1788655988 20° C 35% 1016 hPa 0 mm - 31 W/m² -
1788655686 20° C 33% 1015.9 hPa 0 mm - 32 W/m² -
1788655381 20° C 35% 1015.9 hPa 0 mm - 32 W/m² -
1788655076 20° C 36% 1015.9 hPa 0 mm - 34 W/m² -
1788654772 20.56° C 33% 1015.5 hPa 0 mm - 35 W/m² -
1788654466 21.11° C 33% 1016.2 hPa 0 mm - 38 W/m² -
1788654161 21.11° C 32% 1015.9 hPa 0 mm - 52 W/m² -
1788653857 21.67° C 32% 1016 hPa 0 mm - 280 W/m² -
1788653551 21.67° C 32% 1015.9 hPa 0 mm - 296 W/m² -

* Rain latest hour (hover to see other rain measurements)
** Current wind speed in m/s (hover to see current wind gust speed)